Zurück zum Katalog

HAWK-13B

AktivWissenschaftSSO
NORAD 67396·PAYLOAD·🇺🇸 United States

Gestartet Jan 11, 2026 von Vandenberg Space Force Base

Loading…

Nächste Überflüge (nächste 24 Stunden)

TLE

AktuellSource: Space-Track

Epoche: Sep 13, 2026, 23:11 UTC

1 67396U 26004AK  26256.96639437  .00003533  00000-0  16829-3 0  9994
2 67396  97.4582 254.9428 0007647  37.7564 322.4206 15.19763281 37246

Verfolge HAWK-13B in Echtzeit mit AllMySat

Download on the App Store